Regional Weather Roundup
Issued by NWS

Home | Current Version | Previous Version | Graphics & Text | Print | Product List | Glossary On
Versions: 1 2 3 4 5 6 7 8 9 10 11 12 13 14 15 16 17 18 19 20 21 22 23 24 25 26 27 28 29 30 31 32 33 34 35 36 37 38 39 40 41 42 43 44 45 46 47 48 49 50
906
ASUS43 KMKX 141359
RWRWI

WISCONSIN REGIONAL WEATHER ROUNDUP
NATIONAL WEATHER SERVICE MILWAUKEE/SULLIVAN WI
800 AM CST SUN FEB 14 2016

NOTE: "FAIR" INDICATES FEW OR NO CLOUDS BELOW 12,000 FEET WITH NO
SIGNIFICANT WEATHER AND/OR OBSTRUCTIONS TO VISIBILITY.

WIZ001-002-006>008-014>016-023>028-141500-
NORTHWEST WISCONSIN

CITY           SKY/WX    TMP DP  RH WIND       PRES   REMARKS
SUPERIOR ARPT  CLOUDY     1  -8  67 NE3       30.14F
ASHLAND        CLOUDY   -13 -18  78 CALM      30.17F
HAYWARD        CLOUDY     1 -12  54 E6        30.11F WCI -10
SIREN          LGT SNOW   7  -1  68 S10       30.10S WCI  -7
CUMBERLAND     CLOUDY     3  -8  60 SE9       30.08F WCI -11
RICE LAKE      CLOUDY     6  -6  57 SE13      30.13F WCI -10
CHETEK         CLOUDY     5  -6  59 SE9       30.13F WCI  -9
LADYSMITH      CLOUDY    -3 -12  64 E9        30.16F WCI -19
EAU CLAIRE     CLOUDY     5  -7  57 SE9       30.14F WCI  -9
MENOMONIE      CLOUDY     8  -4  59 E7        30.14F WCI  -4
NEW RICHMOND   FLURRIES   8  -3  61 SE7       30.09F WCI  -3
OSCEOLA        LGT SNOW   8   0  69 SE12      30.12F WCI  -7
$$

WIZ003>005-009-010-017-018-141500-
NORTH CENTRAL WISCONSIN

CITY           SKY/WX    TMP DP  RH WIND       PRES   REMARKS
MANITOWISH WTR CLOUDY    -7 -13  72 SE9       30.15F WCI -24
ARBOR VITAE    CLOUDY   -11 -17  75 CALM      30.17F
WOODRUFF       CLOUDY   -11 -17  75 CALM      30.17F
RHINELANDER    CLOUDY   -12 -17  78 E3        30.17F
EAGLE RIVER    CLOUDY   -20 -28  67 CALM      30.18F
LAND O LAKES   CLOUDY   -22 -28  73 CALM      30.18F
PHILLIPS       CLOUDY   -18 -24  74 SE3       30.14F
TOMAHAWK       CLOUDY   -23 -29  73 CALM      30.19F
MEDFORD        CLOUDY    -6 -14  68 E5        30.15F WCI -17
MERRILL        CLOUDY   N/A N/A N/A CALM      30.22F
$$

WIZ029-030-035-036-043>047-141500-
CENTRAL WISCONSIN

CITY           SKY/WX    TMP DP  RH WIND       PRES   REMARKS
WAUSAU         CLOUDY    -6 -12  75 SE7       30.21F WCI -20
MOSINEE        NOT AVBL
MARSHFIELD     CLOUDY    -2 -13  59 E8        30.16F WCI -17
STEVENS POINT  CLOUDY    -6 -13  71 E7        30.24F WCI -21
WAUPACA        CLOUDY   -12 -18  75 CALM      30.30F
WAUTOMA        NOT AVBL
WISC RAPIDS    CLOUDY     0 -11  59 E10       30.22F WCI -16
CAMP DOUGLAS   NOT AVBL
$$

WIZ011>013-019>022-031-037>040-048>050-141500-
NORTHEAST WISCONSIN

CITY           SKY/WX    TMP DP  RH WIND       PRES   REMARKS
ANTIGO         CLOUDY    -7 -14  70 SE8       30.21F WCI -23
SHAWANO        CLOUDY    -8 -13  76 CALM      30.32F
OCONTO         CLOUDY   -14 -18  81 CALM      30.35F
STURGEON BAY   CLOUDY     1  -6  71 CALM      30.34F
GREEN BAY      CLOUDY    -7 -14  71 CALM      30.32F
MANITOWOC      NOT AVBL
APPLETON       PTCLDY     1  -9  60 VRB3      30.27F
CLINTONVILLE   CLOUDY   -11 -17  77 NE5       30.31F WCI -23
OSHKOSH        CLOUDY    -3  -8  79 CALM      30.28F
$$

WIZ032>034-041-042-053>061-141500-
SOUTHWEST WISCONSIN

CITY           SKY/WX    TMP DP  RH WIND       PRES   REMARKS
LA CROSSE      CLOUDY    12   1  61 SE9       30.17F WCI   0
SPARTA         CLOUDY     9  -1  61 E6        30.19S WCI   0
VIROQUA        CLOUDY     9   1  68 SE15      30.11F WCI  -8
BOSCOBEL       CLOUDY    11   4  73 CALM      30.19F
PRAIRIE DU CHI MIX PCPN  14   7  72 E14       30.17F WCI  -1
PLATTEVILLE    CLOUDY    14   9  79 SE15      30.16F WCI  -1
$$

WIZ056-057-062-063-064-067-068-141500-
SOUTH CENTRAL WISCONSIN

CITY           SKY/WX    TMP DP  RH WIND       PRES   REMARKS
REEDSBURG      CLOUDY     5  -3  69 E5        30.20F WCI  -4
BARABOO/DELLS  CLOUDY     6  -3  68 E9        30.20F WCI  -8
LONE ROCK      NOT AVBL
MINERAL POINT  FLURRIES  14   7  73 SE14      30.16F WCI  -1
MADISON        CLOUDY    11   0  61 SE12      30.23F WCI  -3
MIDDLETON      CLOUDY    13   3  64 SE13      30.22F WCI  -1
WATERTOWN      CLOUDY     9  -1  63 SE7       30.27F WCI  -3
MONROE         CLOUDY    14   5  67 SE10      30.19F WCI   1
JANESVILLE     CLOUDY    16   3  57 SE13      30.24F WCI   2
$$

WIZ051-052-058>065-066-070>072-141500-
SOUTHEAST WISCONSIN

CITY           SKY/WX    TMP DP  RH WIND       PRES   REMARKS
MILWAUKEE      CLOUDY    11   0  61 S9        30.31F WCI  -2
WAUKESHA       MOSUNNY    9  -8  47 SE8       30.30F WCI  -4
MILWAUKEE/TIMM MOSUNNY    7  -2  66 CALM      30.33F
RACINE         CLOUDY    17   6  62 S13       30.33F WCI   4
BURLINGTON     CLOUDY     8   1  71 SE8       30.31F WCI  -4
KENOSHA        MOSUNNY   13   4  67 S6        30.31F WCI   4
FOND DU LAC    CLOUDY    -1  -8  72 CALM      30.29F
SHEBOYGAN      FLURRIES   4  -1  80 CALM      30.31F
WEST BEND      CLOUDY    -2  -8  78 CALM      30.30F
JUNEAU         CLOUDY     3  -6  65 E8        30.28F WCI -10
$$

LSZ147-162-141500-
LAKE SUPERIOR

STATION/POSITION TIME  TEMP    WIND        PRES    WAVE
                       AIR SEA DIR/SP/G            HT/PER
                 (UTC) (F)     (DEG/KT/KT) (MB)    (FT/S)
DEVILS ISLAND    1300    4     160/  8/ 10 1024.7F
SAXON HARBOR     1340  -16                 1022.0F
$$

LMZ867-665-643>646-141500-
LAKE MICHIGAN

STATION/POSITION TIME  TEMP    WIND        PRES    WAVE
                       AIR SEA DIR/SP/G            HT/PER
                 (UTC) (F)     (DEG/KT/KT) (MB)    (FT/S)
CHAMBERS ISLAND  1300   -3     190/  2/  3 1027.4
SISTER BAY       1319    1        CALM       N/A
ALGOMA LAKESHORE 1326             CALM       N/A
KEWAUNEE LAKESHO 1300   -5     300/  5/  7 1027.0F
SHEBOYGAN LAKESH 1300    9     290/  3/  4 1029.5F
PORT WASHINGTON  1300    9     290/  4/  6 1028.4F
MILWAUKEE LAKESH 1310   14     200/  9/ 11   N/A
KENOSHA   LAKESH 1300   14     190/  9/ 15 1027.8F
$$

TC  - TEMPERATURE IN CELSIUS
VSB - VISIBILITY IN STATUTE MILES
WCI - WIND CHILL INDEX
HX  - HEAT INDEX





USA.gov is the U.S. government's official web portal to all federal, state and local government web resources and services.